Soldotna, AK

10:15 AM AKDT on July 26, 2017 (GMT -0800)
Soldotna

Weather History for PASX - March, 2013

Change the Weather History Date:

Monday, March 25, 2013

  Actual Average Record
Temperature  
Mean Temperature 17 °F -  
Max Temperature 24 °F 35 °F 46 °F (1981)
Min Temperature 10 °F 18 °F -21 °F (1962)
Degree Days  
Heating Degree Days 48    
Moisture  
Dew Point 11 °F    
Average Humidity 70    
Maximum Humidity 93    
Minimum Humidity 42    
Precipitation  
Precipitation 0.00 in - - ()
Sea Level Pressure  
Sea Level Pressure 29.50 in    
Wind  
Wind Speed 4 mph (SSW)    
Max Wind Speed 15 mph    
Max Gust Speed 21 mph    
Visibility 7 miles    
Events      
Averages and records for this station are not official NWS values.
T = Trace of Precipitation, MM = Missing Value Source: NWS Daily Summary

Daily Weather History Graph

Daily Weather History Graph

Search for Another Location

Airport or City:

Trip Planner

Search our weather history database for the weather conditions in past years. The results will help you decide how hot, cold, wet, or windy it might be!

Date:

Astronomy

Mar. 25, 2013 Rise Set
Actual Time 7:48 AM AKDT 8:32 PM AKDT
Civil Twilight 7:06 AM AKDT 9:15 PM AKDT
Nautical Twilight 6:14 AM AKDT 10:07 PM AKDT
Astronomical Twilight 5:15 AM AKDT 11:07 PM AKDT
Moon 7:04 PM AKDT (3/25) 6:56 AM AKDT (3/25)
Length of Visible Light 14h 09m
Length of Day
12h 43m
Waxing Gibbous, 97% of the Moon is Illuminated
Mar 25
Waxing Gibbous
Mar 27
Full
Apr 2
Last Quarter
Apr 10
New
Apr 18
First Quarter

Hourly Weather History & Observations

Time (AKDT) Temp. Windchill Dew Point Humidity Pressure Visibility Wind Dir Wind Speed Gust Speed Precip Events Conditions
12:16 AM 24.8 °F - 21.2 °F 86% 29.57 in 5.0 mi Calm Calm - N/A   Mostly Cloudy
12:36 AM 24.8 °F - 21.2 °F 86% 29.57 in 5.0 mi Calm Calm - N/A   Overcast
12:56 AM 24.8 °F 20.5 °F 21.2 °F 86% 29.56 in 5.0 mi SSW 3.5 mph - N/A   Overcast
1:16 AM 24.8 °F - 21.2 °F 86% 29.55 in 3.0 mi Calm Calm - N/A   Overcast
1:36 AM 23.0 °F - 21.2 °F 93% 29.54 in 3.0 mi Calm Calm - N/A   Overcast
1:56 AM 24.8 °F - 21.2 °F 86% 29.54 in 1.8 mi Calm Calm - N/A   Overcast
2:16 AM 23.0 °F - 21.2 °F 93% 29.53 in 1.8 mi Calm Calm - N/A   Overcast
2:36 AM 23.0 °F - 19.4 °F 86% 29.53 in 1.8 mi Calm Calm - N/A   Overcast
2:56 AM 23.0 °F - 19.4 °F 86% 29.52 in 2.5 mi Calm Calm - N/A   Overcast
3:16 AM 23.0 °F - 19.4 °F 86% 29.52 in 2.5 mi Calm Calm - N/A   Overcast
3:36 AM 23.0 °F - 19.4 °F 86% 29.51 in 1.8 mi Calm Calm - N/A   Overcast
3:56 AM 23.0 °F - 19.4 °F 86% 29.50 in 2.0 mi Calm Calm - N/A   Overcast
4:36 AM 23.0 °F - 19.4 °F 86% 29.49 in 4.0 mi Calm Calm - N/A   Overcast
4:56 AM 23.0 °F - 19.4 °F 86% 29.48 in 5.0 mi Calm Calm - N/A   Overcast
5:16 AM 23.0 °F - 19.4 °F 86% 29.47 in 10.0 mi Calm Calm - N/A   Overcast
5:36 AM 21.2 °F - 19.4 °F 93% 29.47 in 10.0 mi Calm Calm - N/A   Overcast
5:56 AM 23.0 °F - 19.4 °F 86% 29.46 in 5.0 mi Calm Calm - N/A   Overcast
6:16 AM 23.0 °F 18.4 °F 19.4 °F 86% 29.45 in 3.0 mi SW 3.5 mph - N/A   Overcast
6:36 AM 23.0 °F - 19.4 °F 86% 29.44 in 3.0 mi Calm Calm - N/A   Overcast
6:56 AM 23.0 °F - 19.4 °F 86% 29.44 in 6.0 mi Calm Calm - N/A   Overcast
7:16 AM 23.0 °F - 19.4 °F 86% 29.43 in 10.0 mi Calm Calm - N/A   Overcast
7:36 AM 23.0 °F 15.8 °F 17.6 °F 80% 29.43 in 10.0 mi South 5.8 mph - N/A   Overcast
7:56 AM 21.2 °F 12.6 °F 17.6 °F 86% 29.43 in 5.0 mi South 6.9 mph - N/A   Overcast
8:16 AM 21.2 °F 11.7 °F 14.0 °F 74% 29.43 in 10.0 mi South 8.1 mph - N/A   Overcast
8:36 AM 19.4 °F 8.6 °F 12.2 °F 74% 29.43 in 10.0 mi South 9.2 mph - N/A   Overcast
8:56 AM 19.4 °F 7.9 °F 10.4 °F 68% 29.42 in 10.0 mi South 10.4 mph - N/A   Overcast
9:16 AM 17.6 °F 6.4 °F 10.4 °F 73% 29.42 in 10.0 mi South 9.2 mph - N/A   Overcast
9:36 AM 17.6 °F 8.2 °F 10.4 °F 73% 29.42 in 10.0 mi South 6.9 mph - N/A   Overcast
9:56 AM 19.4 °F 9.5 °F 12.2 °F 74% 29.42 in 10.0 mi South 8.1 mph - N/A   Overcast
10:16 AM 19.4 °F 10.4 °F 10.4 °F 68% 29.42 in 10.0 mi SSE 6.9 mph 16.1 mph N/A   Mostly Cloudy
10:36 AM 19.4 °F 6.6 °F 10.4 °F 68% 29.42 in 9.0 mi South 12.7 mph 17.3 mph N/A   Mostly Cloudy
10:56 AM 19.4 °F 6.0 °F 12.2 °F 74% 29.41 in 10.0 mi South 13.8 mph 19.6 mph N/A   Overcast
11:16 AM 21.2 °F 9.5 °F 12.2 °F 68% 29.42 in 10.0 mi South 11.5 mph 20.7 mph N/A   Overcast
11:36 AM 21.2 °F 10.1 °F 12.2 °F 68% 29.42 in 9.0 mi South 10.4 mph 20.7 mph N/A   Overcast
11:56 AM 21.2 °F 8.9 °F 12.2 °F 68% 29.43 in 5.0 mi South 12.7 mph 20.7 mph N/A   Overcast
12:16 PM 21.2 °F 8.3 °F 12.2 °F 68% 29.43 in 10.0 mi SSW 13.8 mph 20.7 mph N/A   Overcast
12:36 PM 19.4 °F 5.5 °F 12.2 °F 74% 29.43 in 2.0 mi South 15.0 mph 19.6 mph N/A   Overcast
12:56 PM 19.4 °F 9.5 °F 12.2 °F 74% 29.44 in 2.5 mi SSW 8.1 mph - N/A   Overcast
1:16 PM 19.4 °F 8.6 °F 12.2 °F 74% 29.44 in 1.8 mi South 9.2 mph 16.1 mph N/A   Overcast
1:36 PM 19.4 °F 7.2 °F 12.2 °F 74% 29.44 in 3.0 mi South 11.5 mph - N/A   Overcast
1:56 PM 19.4 °F 14.3 °F 12.2 °F 74% 29.44 in 7.0 mi West 3.5 mph - N/A   Overcast
2:16 PM 19.4 °F 8.6 °F 10.4 °F 68% 29.45 in 6.0 mi WNW 9.2 mph - N/A   Overcast
2:36 PM 19.4 °F 10.4 °F 10.4 °F 68% 29.46 in 10.0 mi WNW 6.9 mph - N/A   Mostly Cloudy
2:56 PM 19.4 °F 7.9 °F 8.6 °F 63% 29.46 in 10.0 mi West 10.4 mph - N/A   Overcast
3:16 PM 21.2 °F 10.9 °F 6.8 °F 54% 29.47 in 10.0 mi West 9.2 mph - N/A   Overcast
3:36 PM 19.4 °F 7.9 °F 3.2 °F 49% 29.47 in 10.0 mi West 10.4 mph - N/A   Mostly Cloudy
3:56 PM 19.4 °F 7.2 °F 6.8 °F 58% 29.47 in 10.0 mi West 11.5 mph - N/A   Overcast
4:16 PM 19.4 °F 6.0 °F 3.2 °F 49% 29.48 in 10.0 mi WSW 13.8 mph - N/A   Overcast
4:36 PM 21.2 °F 8.9 °F 3.2 °F 46% 29.49 in 10.0 mi SW 12.7 mph 18.4 mph N/A   Mostly Cloudy
4:56 PM 21.2 °F 7.8 °F 1.4 °F 42% 29.49 in 10.0 mi SW 15.0 mph - N/A   Partly Cloudy
5:16 PM 19.4 °F 6.0 °F 1.4 °F 46% 29.50 in 10.0 mi SW 13.8 mph 19.6 mph N/A   Clear
5:36 PM 19.4 °F 7.2 °F 1.4 °F 46% 29.50 in 10.0 mi SW 11.5 mph - N/A   Clear
5:56 PM 19.4 °F 7.9 °F 1.4 °F 46% 29.51 in 10.0 mi South 10.4 mph 20.7 mph N/A   Scattered Clouds
6:16 PM 19.4 °F 7.2 °F 1.4 °F 46% 29.51 in 10.0 mi South 11.5 mph 16.1 mph N/A   Scattered Clouds
6:36 PM 17.6 °F 6.4 °F 3.2 °F 53% 29.52 in 10.0 mi South 9.2 mph 17.3 mph N/A   Mostly Cloudy
6:56 PM 17.6 °F 3.7 °F 3.2 °F 53% 29.52 in 10.0 mi South 13.8 mph - N/A   Overcast
7:16 PM 17.6 °F 5.0 °F 3.2 °F 53% 29.53 in 10.0 mi WSW 11.5 mph - N/A   Overcast
7:36 PM 17.6 °F 4.3 °F 6.8 °F 63% 29.54 in 10.0 mi WSW 12.7 mph - N/A   Overcast
7:56 PM 17.6 °F 5.7 °F 6.8 °F 63% 29.56 in 2.5 mi SW 10.4 mph - N/A   Overcast
8:16 PM 15.8 °F 5.1 °F 5.0 °F 62% 29.57 in 6.0 mi SW 8.1 mph - N/A   Overcast
8:36 PM 15.8 °F 4.2 °F 1.4 °F 53% 29.58 in 10.0 mi SSW 9.2 mph - N/A   Overcast
8:56 PM 15.8 °F 6.1 °F 1.4 °F 53% 29.59 in 10.0 mi SSW 6.9 mph - N/A   Overcast
9:16 PM 15.8 °F 10.2 °F -0.4 °F 49% 29.61 in 10.0 mi SSW 3.5 mph - N/A   Overcast
9:36 PM 15.8 °F - -0.4 °F 49% 29.62 in 10.0 mi Calm Calm - N/A   Overcast
9:56 PM 15.8 °F - -0.4 °F 49% 29.63 in 10.0 mi Calm Calm - N/A   Overcast
10:16 PM 14.0 °F 5.1 °F -0.4 °F 53% 29.64 in 9.0 mi SSE 5.8 mph - N/A   Overcast
10:36 PM 12.2 °F 4.3 °F 3.2 °F 67% 29.66 in 3.0 mi SW 4.6 mph - N/A   Mostly Cloudy
10:56 PM 12.2 °F - 3.2 °F 67% 29.67 in 3.0 mi Calm Calm - N/A   Mostly Cloudy
11:16 PM 12.2 °F - 6.8 °F 79% 29.68 in 2.0 mi Calm Calm - N/A   Overcast
11:36 PM 10.4 °F - 6.8 °F 85% 29.69 in 7.0 mi Calm Calm - N/A   Mostly Cloudy
11:56 PM 10.4 °F - 5.0 °F 79% 29.70 in 10.0 mi Calm Calm - N/A   Overcast